Location: Boiro
(42.6475°N, 8.8834°W)
Time: 22:11:38
(UTC+02:00)

UWE-3 - Visible Passes

Search period start: 22 April 2024 00:00
Search period end: 02 May 2024 00:00
Orbit: 569 x 656 km, 97.8° (Epoch: 21 April)

Date Brightness Start Highest point End Pass type
(mag) Time Alt. Az. Time Alt. Az. Time Alt. Az.
22 Apr ? 04:34:53 10° NNE 04:38:36 33° E 04:38:36 33° E visible
22 Apr ? 06:11:13 10° NNW 06:14:33 23° WNW 06:15:37 21° W visible
23 Apr ? 04:49:37 10° NNE 04:53:46 48° E 04:53:50 48° ESE visible
23 Apr ? 06:26:42 10° NNW 06:29:23 17° WNW 06:30:51 14° W visible
24 Apr ? 05:04:27 10° NNE 05:08:43 72° ESE 05:09:02 68° SE visible
24 Apr ? 06:42:33 10° NW 06:44:08 12° WNW 06:45:44 10° W visible
25 Apr ? 05:19:19 10° N 05:23:37 79° WNW 05:24:13 64° SW visible
26 Apr ? 03:59:52 10° ENE 04:02:13 14° E 04:02:21 14° E visible
26 Apr ? 05:34:15 10° N 05:38:27 54° WNW 05:39:21 45° WSW visible
27 Apr ? 04:13:56 10° NE 04:17:11 20° E 04:17:28 20° E visible
27 Apr ? 05:49:15 10° N 05:53:14 37° WNW 05:54:28 31° WSW visible
28 Apr ? 04:28:18 10° NE 04:32:06 29° E 04:32:33 28° ESE visible
28 Apr ? 06:04:19 10° NNW 06:07:58 27° WNW 06:09:33 21° WSW visible
29 Apr ? 04:42:49 10° NNE 04:46:57 41° E 04:47:37 38° ESE visible
29 Apr ? 06:19:30 10° NNW 06:22:37 20° WNW 06:24:37 15° W visible
30 Apr ? 04:57:25 10° NNE 05:01:45 60° E 05:02:38 49° SSE visible
30 Apr ? 06:34:55 10° NNW 06:37:14 14° WNW 06:39:33 10° W visible
01 May ? 05:12:06 10° NNE 05:16:29 88° ESE 05:17:37 50° S visible
01 May ? 06:51:15 10° NW 06:51:46 10° WNW 06:52:16 10° WNW visible
